Time,TemperatureF,DewpointF,PressureIn,WindDirection,WindDirectionDegrees,WindSpeedMPH,WindSpeedGustMPH,Humidity,HourlyPrecipIn,Conditions,Clouds,dailyrainin,SoftwareType,DateUTC
2013-04-05 00:02:00,48.4,44.1,30.19,ENE,62,0.0,2.0,85,0.00,,,0.00,LWC V2.11 B50,2013-04-05 05:02:00,
2013-04-05 00:07:00,48.3,44.0,30.19,ENE,62,0.0,0.0,85,0.00,,,0.00,LWC V2.11 B50,2013-04-05 05:07:00,
2013-04-05 00:12:00,48.2,43.9,30.20,ENE,62,0.0,0.0,85,0.00,,,0.00,LWC V2.11 B50,2013-04-05 05:12:00,
2013-04-05 00:17:00,48.0,43.7,30.20,ENE,62,0.0,0.0,85,0.00,,,0.00,LWC V2.11 B50,2013-04-05 05:17:00,
2013-04-05 00:22:00,47.7,43.7,30.20,ENE,62,0.0,0.0,86,0.00,,,0.00,LWC V2.11 B50,2013-04-05 05:22:00,
2013-04-05 00:27:00,47.4,43.7,30.21,ENE,62,0.0,0.0,87,0.00,,,0.00,LWC V2.11 B50,2013-04-05 05:27:00,
2013-04-05 00:32:00,47.2,43.5,30.21,ENE,62,0.0,0.0,87,0.00,,,0.00,LWC V2.11 B50,2013-04-05 05:32:00,
2013-04-05 00:37:00,47.0,43.3,30.21,ENE,62,0.0,0.0,87,0.00,,,0.00,LWC V2.11 B50,2013-04-05 05:37:00,
2013-04-05 00:42:00,46.9,43.5,30.21,ENE,62,0.0,0.0,88,0.00,,,0.00,LWC V2.11 B50,2013-04-05 05:42:00,
2013-04-05 00:47:00,46.8,43.4,30.21,ENE,62,0.0,1.0,88,0.00,,,0.00,LWC V2.11 B50,2013-04-05 05:47:00,
2013-04-05 00:52:00,46.7,43.3,30.21,ENE,62,0.0,1.0,88,0.00,,,0.00,LWC V2.11 B50,2013-04-05 05:52:00,
2013-04-05 00:57:00,46.7,43.3,30.21,ENE,62,1.0,3.0,88,0.00,,,0.00,LWC V2.11 B50,2013-04-05 05:57:00,
2013-04-05 01:02:00,46.8,43.4,30.21,North,355,2.0,6.0,88,0.00,,,0.00,LWC V2.11 B50,2013-04-05 06:02:00,
2013-04-05 01:07:00,46.8,43.1,30.21,NNE,32,6.0,6.0,87,0.00,,,0.00,LWC V2.11 B50,2013-04-05 06:07:00,
2013-04-05 01:12:00,46.9,43.2,30.21,NE,40,5.0,6.0,87,0.00,,,0.00,LWC V2.11 B50,2013-04-05 06:12:00,
2013-04-05 01:17:00,46.7,43.0,30.21,NE,42,3.0,5.0,87,0.00,,,0.00,LWC V2.11 B50,2013-04-05 06:17:00,
2013-04-05 01:22:00,46.5,42.5,30.21,NNE,24,0.0,3.0,86,0.00,,,0.00,LWC V2.11 B50,2013-04-05 06:22:00,
2013-04-05 01:27:00,46.3,42.6,30.21,North,5,3.0,4.0,87,0.00,,,0.00,LWC V2.11 B50,2013-04-05 06:27:00,
2013-04-05 01:32:00,46.3,42.6,30.21,NNE,32,2.0,5.0,87,0.00,,,0.00,LWC V2.11 B50,2013-04-05 06:32:00,
2013-04-05 01:37:00,46.2,42.5,30.22,NNE,24,2.0,6.0,87,0.00,,,0.00,LWC V2.11 B50,2013-04-05 06:37:00,
2013-04-05 01:42:00,46.1,42.7,30.21,NNE,15,5.0,8.0,88,0.00,,,0.00,LWC V2.11 B50,2013-04-05 06:42:00,
2013-04-05 01:48:00,46.1,42.7,30.22,NNE,24,4.0,4.0,88,0.00,,,0.00,LWC V2.11 B50,2013-04-05 06:48:00,
2013-04-05 01:53:00,46.0,42.6,30.22,NE,35,0.0,4.0,88,0.00,,,0.00,LWC V2.11 B50,2013-04-05 06:53:00,
2013-04-05 01:58:00,46.0,42.6,30.22,NE,34,0.0,4.0,88,0.00,,,0.00,LWC V2.11 B50,2013-04-05 06:58:00,
2013-04-05 02:03:00,45.9,42.5,30.22,North,355,2.0,2.0,88,0.00,,,0.00,LWC V2.11 B50,2013-04-05 07:03:00,
2013-04-05 02:08:00,45.8,42.5,30.22,North,355,1.0,2.0,88,0.00,,,0.00,LWC V2.11 B50,2013-04-05 07:08:00,
2013-04-05 02:13:00,45.7,42.6,30.22,North,355,0.0,2.0,89,0.00,,,0.00,LWC V2.11 B50,2013-04-05 07:13:00,
2013-04-05 02:18:00,45.6,42.5,30.22,North,355,2.0,4.0,89,0.00,,,0.00,LWC V2.11 B50,2013-04-05 07:18:00,
2013-04-05 02:23:00,45.6,42.5,30.22,North,5,2.0,4.0,89,0.00,,,0.00,LWC V2.11 B50,2013-04-05 07:23:00,
2013-04-05 02:28:00,45.5,42.4,30.22,North,5,3.0,3.0,89,0.00,,,0.00,LWC V2.11 B50,2013-04-05 07:28:00,
2013-04-05 02:33:00,45.4,42.3,30.22,North,5,3.0,3.0,89,0.00,,,0.00,LWC V2.11 B50,2013-04-05 07:33:00,
2013-04-05 02:38:00,45.3,42.3,30.22,North,0,1.0,3.0,89,0.00,,,0.00,LWC V2.11 B50,2013-04-05 07:38:00,
2013-04-05 02:43:00,45.2,42.2,30.21,North,0,4.0,4.0,89,0.00,,,0.00,LWC V2.11 B50,2013-04-05 07:43:00,
2013-04-05 02:48:00,45.1,42.1,30.21,North,0,1.0,3.0,89,0.00,,,0.00,LWC V2.11 B50,2013-04-05 07:48:00,
2013-04-05 02:53:00,45.0,42.2,30.21,North,0,1.0,2.0,90,0.00,,,0.00,LWC V2.11 B50,2013-04-05 07:53:00,
2013-04-05 02:58:00,44.8,42.0,30.21,North,0,0.0,2.0,90,0.00,,,0.00,LWC V2.11 B50,2013-04-05 07:58:00,
2013-04-05 03:03:00,44.7,41.9,30.20,North,0,0.0,2.0,90,0.00,,,0.00,LWC V2.11 B50,2013-04-05 08:03:00,
2013-04-05 03:08:00,44.5,41.8,30.20,North,0,1.0,4.0,90,0.00,,,0.00,LWC V2.11 B50,2013-04-05 08:08:00,
2013-04-05 03:13:00,44.3,41.6,30.20,North,0,0.0,2.0,90,0.00,,,0.00,LWC V2.11 B50,2013-04-05 08:13:00,
2013-04-05 03:18:00,44.2,41.7,30.21,NNW,338,0.0,4.0,91,0.00,,,0.00,LWC V2.11 B50,2013-04-05 08:18:00,
2013-04-05 03:23:00,44.0,41.5,30.21,NNW,338,0.0,1.0,91,0.00,,,0.00,LWC V2.11 B50,2013-04-05 08:23:00,
2013-04-05 03:29:00,43.8,41.3,30.21,NNW,338,0.0,2.0,91,0.00,,,0.00,LWC V2.11 B50,2013-04-05 08:29:00,
2013-04-05 03:34:00,43.7,41.2,30.21,NNW,338,0.0,2.0,91,0.00,,,0.00,LWC V2.11 B50,2013-04-05 08:34:00,
2013-04-05 03:39:00,43.6,41.4,30.21,NNW,338,0.0,1.0,92,0.00,,,0.00,LWC V2.11 B50,2013-04-05 08:39:00,
2013-04-05 03:44:00,43.5,41.3,30.22,NNW,338,0.0,1.0,92,0.00,,,0.00,LWC V2.11 B50,2013-04-05 08:44:00,
2013-04-05 03:49:00,43.4,41.2,30.21,NNW,338,0.0,0.0,92,0.00,,,0.00,LWC V2.11 B50,2013-04-05 08:49:00,
2013-04-05 03:54:00,43.2,41.0,30.21,NNW,338,0.0,0.0,92,0.00,,,0.00,LWC V2.11 B50,2013-04-05 08:54:00,
2013-04-05 03:59:00,43.1,40.9,30.21,NNW,338,0.0,1.0,92,0.00,,,0.00,LWC V2.11 B50,2013-04-05 08:59:00,
2013-04-05 04:04:00,43.0,40.8,30.22,NNW,338,0.0,1.0,92,0.00,,,0.00,LWC V2.11 B50,2013-04-05 09:04:00,
2013-04-05 04:09:00,42.9,40.7,30.21,NNW,338,1.0,1.0,92,0.00,,,0.00,LWC V2.11 B50,2013-04-05 09:09:00,
2013-04-05 04:15:00,42.9,41.0,30.21,NNW,338,1.0,1.0,93,0.00,,,0.00,LWC V2.11 B50,2013-04-05 09:15:00,
2013-04-05 04:20:00,43.0,41.1,30.21,NNW,338,2.0,4.0,93,0.00,,,0.00,LWC V2.11 B50,2013-04-05 09:20:00,
2013-04-05 04:25:00,43.1,40.9,30.21,NNW,338,1.0,4.0,92,0.00,,,0.00,LWC V2.11 B50,2013-04-05 09:25:00,
2013-04-05 04:30:00,43.2,41.0,30.21,NNW,338,1.0,1.0,92,0.00,,,0.00,LWC V2.11 B50,2013-04-05 09:30:00,
2013-04-05 04:35:00,43.1,40.9,30.21,NNW,338,0.0,1.0,92,0.00,,,0.00,LWC V2.11 B50,2013-04-05 09:35:00,
2013-04-05 04:40:00,43.1,40.9,30.21,NNW,338,0.0,0.0,92,0.00,,,0.00,LWC V2.11 B50,2013-04-05 09:40:00,
2013-04-05 04:45:00,42.9,40.7,30.21,NNW,338,0.0,0.0,92,0.00,,,0.00,LWC V2.11 B50,2013-04-05 09:45:00,
2013-04-05 04:50:00,42.7,40.5,30.21,NNW,338,0.0,0.0,92,0.00,,,0.00,LWC V2.11 B50,2013-04-05 09:50:00,
2013-04-05 04:55:00,42.6,40.4,30.21,NNW,338,0.0,1.0,92,0.00,,,0.00,LWC V2.11 B50,2013-04-05 09:55:00,
2013-04-05 05:00:00,42.5,40.3,30.22,NNW,338,0.0,0.0,92,0.00,,,0.00,LWC V2.11 B50,2013-04-05 10:00:00,
2013-04-05 05:05:00,42.4,40.5,30.21,NNW,338,0.0,0.0,93,0.00,,,0.00,LWC V2.11 B50,2013-04-05 10:05:00,
2013-04-05 05:10:00,42.4,40.5,30.22,NNW,338,0.0,1.0,93,0.00,,,0.00,LWC V2.11 B50,2013-04-05 10:10:00,
2013-04-05 05:15:00,42.4,40.5,30.22,NNW,338,0.0,0.0,93,0.00,,,0.00,LWC V2.11 B50,2013-04-05 10:15:00,
2013-04-05 05:20:00,42.4,40.5,30.21,NNW,338,0.0,1.0,93,0.00,,,0.00,LWC V2.11 B50,2013-04-05 10:20:00,
2013-04-05 05:25:00,42.5,40.6,30.22,NNW,338,0.0,1.0,93,0.00,,,0.00,LWC V2.11 B50,2013-04-05 10:25:00,
2013-04-05 05:31:00,42.6,40.4,30.21,NNW,338,0.0,1.0,92,0.00,,,0.00,LWC V2.11 B50,2013-04-05 10:31:00,
2013-04-05 05:36:00,42.7,40.5,30.21,NNW,338,0.0,1.0,92,0.00,,,0.00,LWC V2.11 B50,2013-04-05 10:36:00,
2013-04-05 05:41:00,42.7,40.5,30.21,NNW,338,0.0,1.0,92,0.00,,,0.00,LWC V2.11 B50,2013-04-05 10:41:00,
2013-04-05 05:46:00,42.7,40.5,30.21,NNW,338,0.0,1.0,92,0.00,,,0.00,LWC V2.11 B50,2013-04-05 10:46:00,
2013-04-05 05:51:00,42.7,40.5,30.22,NNW,338,0.0,0.0,92,0.00,,,0.00,LWC V2.11 B50,2013-04-05 10:51:00,
2013-04-05 05:56:00,42.5,40.3,30.22,NNW,338,0.0,1.0,92,0.00,,,0.00,LWC V2.11 B50,2013-04-05 10:56:00,
2013-04-05 06:01:00,42.3,40.1,30.22,NNW,338,0.0,0.0,92,0.00,,,0.00,LWC V2.11 B50,2013-04-05 11:01:00,
2013-04-05 06:06:00,42.2,40.0,30.22,NNW,338,1.0,4.0,92,0.00,,,0.00,LWC V2.11 B50,2013-04-05 11:06:00,
2013-04-05 06:11:00,42.1,39.9,30.22,NNW,339,0.0,6.0,92,0.00,,,0.00,LWC V2.11 B50,2013-04-05 11:11:00,
2013-04-05 06:16:00,42.2,40.3,30.22,NNW,331,2.0,4.0,93,0.00,,,0.00,LWC V2.11 B50,2013-04-05 11:16:00,
2013-04-05 06:21:00,42.3,40.1,30.22,NNW,334,1.0,2.0,92,0.00,,,0.00,LWC V2.11 B50,2013-04-05 11:21:00,
2013-04-05 06:26:00,42.2,40.0,30.23,NW,321,0.0,2.0,92,0.00,,,0.00,LWC V2.11 B50,2013-04-05 11:26:00,
2013-04-05 06:31:00,41.9,39.7,30.23,NW,321,0.0,1.0,92,0.00,,,0.00,LWC V2.11 B50,2013-04-05 11:31:00,
2013-04-05 06:36:00,41.7,39.5,30.23,NW,321,0.0,0.0,92,0.00,,,0.00,LWC V2.11 B50,2013-04-05 11:36:00,
2013-04-05 06:41:00,41.4,39.3,30.23,NW,321,0.0,1.0,92,0.00,,,0.00,LWC V2.11 B50,2013-04-05 11:41:00,
2013-04-05 06:47:00,41.3,39.2,30.23,NW,321,0.0,1.0,92,0.00,,,0.00,LWC V2.11 B50,2013-04-05 11:47:00,
2013-04-05 06:52:00,41.3,39.4,30.23,NW,321,0.0,0.0,93,0.00,,,0.00,LWC V2.11 B50,2013-04-05 11:52:00,
2013-04-05 06:57:00,41.3,39.4,30.23,NW,321,0.0,0.0,93,0.00,,,0.00,LWC V2.11 B50,2013-04-05 11:57:00,
2013-04-05 07:02:00,41.3,39.4,30.23,NW,321,0.0,1.0,93,0.00,,,0.00,LWC V2.11 B50,2013-04-05 12:02:00,
2013-04-05 07:07:00,41.4,39.5,30.23,NW,321,2.0,2.0,93,0.00,,,0.00,LWC V2.11 B50,2013-04-05 12:07:00,
2013-04-05 07:12:00,41.5,39.6,30.22,NW,321,4.0,4.0,93,0.00,,,0.00,LWC V2.11 B50,2013-04-05 12:12:00,
2013-04-05 07:17:00,41.5,39.6,30.23,NW,321,2.0,5.0,93,0.00,,,0.00,LWC V2.11 B50,2013-04-05 12:17:00,
2013-04-05 07:22:00,41.5,39.6,30.23,NW,324,4.0,4.0,93,0.00,,,0.00,LWC V2.11 B50,2013-04-05 12:22:00,
2013-04-05 07:27:00,41.5,39.6,30.23,NW,315,4.0,5.0,93,0.00,,,0.00,LWC V2.11 B50,2013-04-05 12:27:00,
2013-04-05 07:32:00,41.5,39.6,30.24,NW,316,0.0,1.0,93,0.00,,,0.00,LWC V2.11 B50,2013-04-05 12:32:00,
2013-04-05 07:37:00,41.6,39.7,30.24,NW,316,0.0,1.0,93,0.00,,,0.00,LWC V2.11 B50,2013-04-05 12:37:00,
2013-04-05 07:42:00,41.6,39.7,30.24,NW,316,1.0,2.0,93,0.00,,,0.00,LWC V2.11 B50,2013-04-05 12:42:00,
2013-04-05 07:47:00,41.7,39.8,30.24,NW,316,0.0,2.0,93,0.00,,,0.00,LWC V2.11 B50,2013-04-05 12:47:00,
2013-04-05 07:52:00,42.1,40.2,30.25,NW,318,1.0,5.0,93,0.00,,,0.00,LWC V2.11 B50,2013-04-05 12:52:00,
2013-04-05 07:57:00,42.4,40.5,30.25,NW,318,1.0,1.0,93,0.00,,,0.00,LWC V2.11 B50,2013-04-05 12:57:00,
2013-04-05 08:02:00,42.7,40.5,30.26,NW,318,0.0,2.0,92,0.00,,,0.00,LWC V2.11 B50,2013-04-05 13:02:00,
2013-04-05 08:07:00,43.1,40.9,30.26,NW,318,0.0,1.0,92,0.00,,,0.00,LWC V2.11 B50,2013-04-05 13:07:00,
2013-04-05 08:12:00,43.4,41.2,30.26,NW,318,0.0,2.0,92,0.00,,,0.00,LWC V2.11 B50,2013-04-05 13:12:00,
2013-04-05 08:17:00,43.9,41.7,30.26,NW,318,0.0,1.0,92,0.00,,,0.00,LWC V2.11 B50,2013-04-05 13:17:00,
2013-04-05 08:22:00,44.4,42.2,30.27,NW,318,0.0,1.0,92,0.00,,,0.00,LWC V2.11 B50,2013-04-05 13:22:00,
2013-04-05 08:28:00,45.0,42.5,30.27,NW,318,0.0,1.0,91,0.00,,,0.00,LWC V2.11 B50,2013-04-05 13:28:00,
2013-04-05 08:33:00,45.7,42.9,30.27,NW,318,1.0,2.0,90,0.00,,,0.00,LWC V2.11 B50,2013-04-05 13:33:00,
2013-04-05 08:38:00,46.4,43.3,30.27,NW,318,0.0,0.0,89,0.00,,,0.00,LWC V2.11 B50,2013-04-05 13:38:00,
2013-04-05 08:43:00,46.9,43.2,30.27,NW,318,0.0,2.0,87,0.00,,,0.00,LWC V2.11 B50,2013-04-05 13:43:00,
2013-04-05 08:48:00,47.4,43.7,30.27,NW,318,0.0,1.0,87,0.00,,,0.00,LWC V2.11 B50,2013-04-05 13:48:00,
2013-04-05 08:53:00,47.8,43.5,30.27,NW,318,0.0,0.0,85,0.00,,,0.00,LWC V2.11 B50,2013-04-05 13:53:00,
2013-04-05 08:58:00,48.0,43.1,30.27,NW,318,0.0,0.0,83,0.00,,,0.00,LWC V2.11 B50,2013-04-05 13:58:00,
2013-04-05 09:03:00,48.3,43.1,30.27,NW,318,0.0,2.0,82,0.00,,,0.00,LWC V2.11 B50,2013-04-05 14:03:00,
2013-04-05 09:08:00,49.0,43.4,30.27,NW,318,2.0,2.0,81,0.00,,,0.00,LWC V2.11 B50,2013-04-05 14:08:00,
2013-04-05 09:13:00,49.7,43.5,30.27,NW,318,0.0,2.0,79,0.00,,,0.00,LWC V2.11 B50,2013-04-05 14:13:00,
2013-04-05 09:18:00,50.0,43.4,30.27,NW,318,2.0,2.0,78,0.00,,,0.00,LWC V2.11 B50,2013-04-05 14:18:00,
2013-04-05 09:23:00,50.1,43.2,30.27,NW,318,0.0,0.0,77,0.00,,,0.00,LWC V2.11 B50,2013-04-05 14:23:00,
2013-04-05 09:28:00,50.5,43.9,30.27,NW,318,1.0,1.0,78,0.00,,,0.00,LWC V2.11 B50,2013-04-05 14:28:00,
2013-04-05 09:33:00,51.2,44.2,30.27,NW,321,0.0,1.0,77,0.00,,,0.00,LWC V2.11 B50,2013-04-05 14:33:00,
2013-04-05 09:39:00,52.4,45.1,30.27,NW,321,0.0,4.0,76,0.00,,,0.00,LWC V2.11 B50,2013-04-05 14:39:00,
2013-04-05 09:44:00,53.1,44.7,30.28,NW,321,0.0,0.0,73,0.00,,,0.00,LWC V2.11 B50,2013-04-05 14:44:00,
2013-04-05 09:49:00,53.7,45.3,30.28,NW,315,0.0,0.0,73,0.00,,,0.00,LWC V2.11 B50,2013-04-05 14:49:00,
2013-04-05 09:54:00,54.1,44.9,30.27,NW,315,0.0,2.0,71,0.00,,,0.00,LWC V2.11 B50,2013-04-05 14:54:00,
2013-04-05 09:59:00,54.2,44.6,30.27,NW,315,0.0,2.0,70,0.00,,,0.00,LWC V2.11 B50,2013-04-05 14:59:00,
2013-04-05 10:04:00,54.8,44.8,30.27,NW,315,0.0,1.0,69,0.00,,,0.00,LWC V2.11 B50,2013-04-05 15:04:00,
2013-04-05 10:10:00,55.3,44.1,30.27,NW,315,0.0,2.0,66,0.00,,,0.00,LWC V2.11 B50,2013-04-05 15:10:00,
2013-04-05 10:15:00,55.8,44.6,30.27,WNW,292,0.0,1.0,66,0.00,,,0.00,LWC V2.11 B50,2013-04-05 15:15:00,
2013-04-05 10:20:00,55.9,43.9,30.27,East,86,3.0,3.0,64,0.00,,,0.00,LWC V2.11 B50,2013-04-05 15:20:00,
2013-04-05 10:25:00,55.9,43.9,30.28,ENE,69,1.0,2.0,64,0.00,,,0.00,LWC V2.11 B50,2013-04-05 15:25:00,
2013-04-05 10:30:00,56.0,44.4,30.27,SE,136,0.0,2.0,65,0.00,,,0.00,LWC V2.11 B50,2013-04-05 15:30:00,
2013-04-05 10:35:00,56.6,45.0,30.27,SE,134,1.0,1.0,65,0.00,,,0.00,LWC V2.11 B50,2013-04-05 15:35:00,
2013-04-05 10:40:00,56.8,44.8,30.27,East,96,0.0,1.0,64,0.00,,,0.00,LWC V2.11 B50,2013-04-05 15:40:00,
2013-04-05 10:45:00,57.1,45.0,30.27,East,96,1.0,1.0,64,0.00,,,0.00,LWC V2.11 B50,2013-04-05 15:45:00,
2013-04-05 10:51:00,57.6,44.2,30.27,ESE,119,0.0,2.0,61,0.00,,,0.00,LWC V2.11 B50,2013-04-05 15:51:00,
2013-04-05 10:56:00,58.0,45.1,30.27,ESE,119,0.0,1.0,62,0.00,,,0.00,LWC V2.11 B50,2013-04-05 15:56:00,
2013-04-05 11:01:00,58.4,44.1,30.27,NNE,30,0.0,3.0,59,0.00,,,0.00,LWC V2.11 B50,2013-04-05 16:01:00,
2013-04-05 11:06:00,58.6,43.4,30.27,NE,52,4.0,5.0,57,0.00,,,0.00,LWC V2.11 B50,2013-04-05 16:06:00,
2013-04-05 11:11:00,58.0,43.3,30.26,ESE,108,1.0,7.0,58,0.00,,,0.00,LWC V2.11 B50,2013-04-05 16:11:00,
2013-04-05 11:17:00,58.1,44.3,30.26,NNE,26,0.0,3.0,60,0.00,,,0.00,LWC V2.11 B50,2013-04-05 16:17:00,
2013-04-05 11:22:00,58.5,43.3,30.26,ESE,102,0.0,4.0,57,0.00,,,0.00,LWC V2.11 B50,2013-04-05 16:22:00,
2013-04-05 11:27:00,58.8,43.1,30.26,East,97,1.0,5.0,56,0.00,,,0.00,LWC V2.11 B50,2013-04-05 16:27:00,
2013-04-05 11:32:00,59.4,44.2,30.26,ESE,121,1.0,4.0,57,0.00,,,0.00,LWC V2.11 B50,2013-04-05 16:32:00,
2013-04-05 11:37:00,59.8,44.1,30.25,SE,126,0.0,2.0,56,0.00,,,0.00,LWC V2.11 B50,2013-04-05 16:37:00,
2013-04-05 11:42:00,60.0,44.3,30.26,ENE,63,1.0,4.0,56,0.00,,,0.00,LWC V2.11 B50,2013-04-05 16:42:00,
2013-04-05 11:48:00,60.4,44.2,30.25,NE,40,0.0,3.0,55,0.00,,,0.00,LWC V2.11 B50,2013-04-05 16:48:00,
2013-04-05 11:53:00,61.0,44.7,30.25,SSE,163,0.0,1.0,55,0.00,,,0.00,LWC V2.11 B50,2013-04-05 16:53:00,
2013-04-05 11:58:00,61.8,46.4,30.25,ESE,107,0.0,1.0,57,0.00,,,0.00,LWC V2.11 B50,2013-04-05 16:58:00,
2013-04-05 12:03:00,62.2,45.3,30.25,East,97,1.0,2.0,54,0.00,,,0.00,LWC V2.11 B50,2013-04-05 17:03:00,
2013-04-05 12:08:00,62.3,45.4,30.24,SE,136,0.0,2.0,54,0.00,,,0.00,LWC V2.11 B50,2013-04-05 17:08:00,
2013-04-05 12:13:00,62.6,44.7,30.25,East,97,1.0,5.0,52,0.00,,,0.00,LWC V2.11 B50,2013-04-05 17:13:00,
2013-04-05 12:18:00,62.5,44.6,30.24,NE,51,0.0,3.0,52,0.00,,,0.00,LWC V2.11 B50,2013-04-05 17:18:00,
2013-04-05 12:23:00,62.7,45.3,30.24,East,87,1.0,2.0,53,0.00,,,0.00,LWC V2.11 B50,2013-04-05 17:23:00,
2013-04-05 12:28:00,63.6,46.2,30.24,SE,142,0.0,4.0,53,0.00,,,0.00,LWC V2.11 B50,2013-04-05 17:28:00,
2013-04-05 12:33:00,64.5,46.0,30.24,ESE,120,2.0,2.0,51,0.00,,,0.00,LWC V2.11 B50,2013-04-05 17:33:00,
2013-04-05 12:38:00,64.7,46.7,30.23,SSE,155,0.0,2.0,52,0.00,,,0.00,LWC V2.11 B50,2013-04-05 17:38:00,
2013-04-05 12:43:00,64.6,46.6,30.23,SSE,167,0.0,2.0,52,0.00,,,0.00,LWC V2.11 B50,2013-04-05 17:43:00,
2013-04-05 12:48:00,64.8,46.2,30.22,ENE,60,2.0,2.0,51,0.00,,,0.00,LWC V2.11 B50,2013-04-05 17:48:00,
2013-04-05 12:53:00,64.4,45.3,30.22,East,88,0.0,3.0,50,0.00,,,0.00,LWC V2.11 B50,2013-04-05 17:53:00,
2013-04-05 12:58:00,64.7,46.7,30.21,ESE,104,5.0,5.0,52,0.00,,,0.00,LWC V2.11 B50,2013-04-05 17:58:00,
2013-04-05 13:03:00,65.2,47.1,30.21,ESE,113,1.0,4.0,52,0.00,,,0.00,LWC V2.11 B50,2013-04-05 18:03:00,
2013-04-05 13:08:00,65.6,46.5,30.21,ESE,108,1.0,4.0,50,0.00,,,0.00,LWC V2.11 B50,2013-04-05 18:08:00,
2013-04-05 13:13:00,66.0,47.9,30.21,SSE,154,1.0,7.0,52,0.00,,,0.00,LWC V2.11 B50,2013-04-05 18:13:00,
2013-04-05 13:18:00,66.5,46.7,30.20,SE,146,2.0,4.0,49,0.00,,,0.00,LWC V2.11 B50,2013-04-05 18:18:00,
2013-04-05 13:23:00,67.2,47.4,30.20,East,97,1.0,1.0,49,0.00,,,0.00,LWC V2.11 B50,2013-04-05 18:23:00,
2013-04-05 13:28:00,67.4,47.6,30.20,South,176,0.0,5.0,49,0.00,,,0.00,LWC V2.11 B50,2013-04-05 18:28:00,
2013-04-05 13:33:00,67.6,47.8,30.19,South,176,1.0,1.0,49,0.00,,,0.00,LWC V2.11 B50,2013-04-05 18:33:00,
2013-04-05 13:39:00,68.3,48.9,30.19,SE,134,2.0,2.0,50,0.00,,,0.00,LWC V2.11 B50,2013-04-05 18:39:00,
2013-04-05 13:44:00,68.4,47.9,30.19,ESE,105,0.0,1.0,48,0.00,,,0.00,LWC V2.11 B50,2013-04-05 18:44:00,
2013-04-05 13:49:00,68.6,47.6,30.19,ESE,105,0.0,2.0,47,0.00,,,0.00,LWC V2.11 B50,2013-04-05 18:49:00,
2013-04-05 13:54:00,68.7,47.6,30.18,ENE,69,1.0,3.0,47,0.00,,,0.00,LWC V2.11 B50,2013-04-05 18:54:00,
2013-04-05 13:59:00,68.6,47.0,30.18,ESE,108,4.0,4.0,46,0.00,,,0.00,LWC V2.11 B50,2013-04-05 18:59:00,
2013-04-05 14:04:00,68.5,48.6,30.18,ESE,116,1.0,4.0,49,0.00,,,0.00,LWC V2.11 B50,2013-04-05 19:04:00,
2013-04-05 14:09:00,68.9,48.4,30.18,East,101,1.0,4.0,48,0.00,,,0.00,LWC V2.11 B50,2013-04-05 19:09:00,
2013-04-05 14:14:00,68.8,49.4,30.17,SE,134,0.0,4.0,50,0.00,,,0.00,LWC V2.11 B50,2013-04-05 19:14:00,
2013-04-05 14:20:00,68.8,48.3,30.17,SE,128,1.0,2.0,48,0.00,,,0.00,LWC V2.11 B50,2013-04-05 19:20:00,
2013-04-05 14:25:00,68.5,48.6,30.17,SSE,150,0.0,5.0,49,0.00,,,0.00,LWC V2.11 B50,2013-04-05 19:25:00,
2013-04-05 14:30:00,68.9,48.4,30.16,SSE,151,0.0,0.0,48,0.00,,,0.00,LWC V2.11 B50,2013-04-05 19:30:00,
2013-04-05 14:35:00,68.9,48.4,30.16,SW,233,0.0,3.0,48,0.00,,,0.00,LWC V2.11 B50,2013-04-05 19:35:00,
2013-04-05 14:40:00,68.9,47.8,30.16,East,94,1.0,4.0,47,0.00,,,0.00,LWC V2.11 B50,2013-04-05 19:40:00,
2013-04-05 14:45:00,68.8,48.8,30.16,South,185,0.0,2.0,49,0.00,,,0.00,LWC V2.11 B50,2013-04-05 19:45:00,
2013-04-05 14:50:00,69.6,47.9,30.15,SSE,148,0.0,5.0,46,0.00,,,0.00,LWC V2.11 B50,2013-04-05 19:50:00,
2013-04-05 14:55:00,70.2,49.6,30.15,South,189,0.0,4.0,48,0.00,,,0.00,LWC V2.11 B50,2013-04-05 19:55:00,
2013-04-05 15:00:00,70.6,48.2,30.15,NE,45,2.0,2.0,45,0.00,,,0.00,LWC V2.11 B50,2013-04-05 20:00:00,
2013-04-05 15:05:00,71.0,49.2,30.15,SSW,196,2.0,4.0,46,0.00,,,0.00,LWC V2.11 B50,2013-04-05 20:05:00,
2013-04-05 15:10:00,71.2,49.3,30.14,SSW,200,0.0,1.0,46,0.00,,,0.00,LWC V2.11 B50,2013-04-05 20:10:00,
2013-04-05 15:15:00,71.6,49.1,30.13,SSW,193,4.0,4.0,45,0.00,,,0.00,LWC V2.11 B50,2013-04-05 20:15:00,
2013-04-05 15:20:00,71.6,49.7,30.13,SE,130,0.0,1.0,46,0.00,,,0.00,LWC V2.11 B50,2013-04-05 20:20:00,
2013-04-05 15:25:00,71.5,49.0,30.12,ENE,74,1.0,3.0,45,0.00,,,0.00,LWC V2.11 B50,2013-04-05 20:25:00,
2013-04-05 15:31:00,71.4,49.5,30.12,East,88,0.0,1.0,46,0.00,,,0.00,LWC V2.11 B50,2013-04-05 20:31:00,
2013-04-05 15:36:00,71.8,49.3,30.11,ESE,119,0.0,5.0,45,0.00,,,0.00,LWC V2.11 B50,2013-04-05 20:36:00,
2013-04-05 15:41:00,72.1,49.0,30.11,East,90,1.0,5.0,44,0.00,,,0.00,LWC V2.11 B50,2013-04-05 20:41:00,
2013-04-05 15:46:00,72.5,50.5,30.11,SSE,148,0.0,4.0,46,0.00,,,0.00,LWC V2.11 B50,2013-04-05 20:46:00,
2013-04-05 15:51:00,72.7,48.9,30.10,South,184,2.0,5.0,43,0.00,,,0.00,LWC V2.11 B50,2013-04-05 20:51:00,
2013-04-05 15:56:00,72.6,50.0,30.10,East,90,1.0,5.0,45,0.00,,,0.00,LWC V2.11 B50,2013-04-05 20:56:00,
2013-04-05 16:01:00,72.4,49.2,30.10,South,188,1.0,3.0,44,0.00,,,0.00,LWC V2.11 B50,2013-04-05 21:01:00,
2013-04-05 16:07:00,72.7,48.9,30.10,SW,219,0.0,2.0,43,0.00,,,0.00,LWC V2.11 B50,2013-04-05 21:07:00,
2013-04-05 16:12:00,72.7,48.9,30.10,SW,223,0.0,1.0,43,0.00,,,0.00,LWC V2.11 B50,2013-04-05 21:12:00,
2013-04-05 16:17:00,73.2,50.0,30.10,SW,227,0.0,2.0,44,0.00,,,0.00,LWC V2.11 B50,2013-04-05 21:17:00,
2013-04-05 16:22:00,73.7,49.2,30.10,ESE,111,1.0,4.0,42,0.00,,,0.00,LWC V2.11 B50,2013-04-05 21:22:00,
2013-04-05 16:27:00,73.3,49.4,30.09,ESE,107,0.0,5.0,43,0.00,,,0.00,LWC V2.11 B50,2013-04-05 21:27:00,
2013-04-05 16:32:00,72.8,49.0,30.09,East,94,0.0,2.0,43,0.00,,,0.00,LWC V2.11 B50,2013-04-05 21:32:00,
2013-04-05 16:37:00,72.7,49.5,30.09,SSE,161,2.0,4.0,44,0.00,,,0.00,LWC V2.11 B50,2013-04-05 21:37:00,
2013-04-05 16:42:00,72.8,49.6,30.09,ENE,76,1.0,2.0,44,0.00,,,0.00,LWC V2.11 B50,2013-04-05 21:42:00,
2013-04-05 16:47:00,72.7,49.5,30.09,East,101,1.0,1.0,44,0.00,,,0.00,LWC V2.11 B50,2013-04-05 21:47:00,
2013-04-05 16:52:00,72.5,49.9,30.08,SE,144,0.0,2.0,45,0.00,,,0.00,LWC V2.11 B50,2013-04-05 21:52:00,
2013-04-05 16:57:00,72.4,49.8,30.08,ESE,107,2.0,2.0,45,0.00,,,0.00,LWC V2.11 B50,2013-04-05 21:57:00,
2013-04-05 17:02:00,72.5,49.9,30.08,South,188,2.0,2.0,45,0.00,,,0.00,LWC V2.11 B50,2013-04-05 22:02:00,
2013-04-05 17:07:00,72.4,49.8,30.08,ESE,102,2.0,2.0,45,0.00,,,0.00,LWC V2.11 B50,2013-04-05 22:07:00,
2013-04-05 17:12:00,72.2,48.4,30.07,East,80,3.0,3.0,43,0.00,,,0.00,LWC V2.11 B50,2013-04-05 22:12:00,
2013-04-05 17:17:00,71.8,48.7,30.07,East,90,2.0,5.0,44,0.00,,,0.00,LWC V2.11 B50,2013-04-05 22:17:00,
2013-04-05 17:22:00,71.9,49.4,30.07,ESE,112,0.0,0.0,45,0.00,,,0.00,LWC V2.11 B50,2013-04-05 22:22:00,
2013-04-05 17:27:00,72.3,49.8,30.07,ESE,113,2.0,2.0,45,0.00,,,0.00,LWC V2.11 B50,2013-04-05 22:27:00,
2013-04-05 17:32:00,72.6,49.4,30.07,South,183,0.0,2.0,44,0.00,,,0.00,LWC V2.11 B50,2013-04-05 22:32:00,
2013-04-05 17:37:00,72.3,49.2,30.07,East,101,2.0,4.0,44,0.00,,,0.00,LWC V2.11 B50,2013-04-05 22:37:00,
2013-04-05 17:42:00,71.9,49.4,30.06,East,96,4.0,4.0,45,0.00,,,0.00,LWC V2.11 B50,2013-04-05 22:42:00,
2013-04-05 17:47:00,71.6,49.7,30.07,East,90,1.0,1.0,46,0.00,,,0.00,LWC V2.11 B50,2013-04-05 22:47:00,
2013-04-05 17:52:00,71.7,50.4,30.06,East,90,0.0,0.0,47,0.00,,,0.00,LWC V2.11 B50,2013-04-05 22:52:00,
2013-04-05 17:57:00,71.8,50.5,30.07,South,171,0.0,1.0,47,0.00,,,0.00,LWC V2.11 B50,2013-04-05 22:57:00,
2013-04-05 18:03:00,71.7,50.4,30.06,South,171,0.0,1.0,47,0.00,,,0.00,LWC V2.11 B50,2013-04-05 23:03:00,
2013-04-05 18:08:00,71.5,50.2,30.06,ESE,119,1.0,2.0,47,0.00,,,0.00,LWC V2.11 B50,2013-04-05 23:08:00,
2013-04-05 18:13:00,71.1,49.8,30.06,ESE,113,1.0,1.0,47,0.00,,,0.00,LWC V2.11 B50,2013-04-05 23:13:00,
2013-04-05 18:18:00,70.7,50.6,30.06,ESE,113,0.0,0.0,49,0.00,,,0.00,LWC V2.11 B50,2013-04-05 23:18:00,
2013-04-05 18:23:00,70.6,50.5,30.06,East,99,0.0,4.0,49,0.00,,,0.00,LWC V2.11 B50,2013-04-05 23:23:00,
2013-04-05 18:28:00,70.7,50.6,30.07,East,101,0.0,2.0,49,0.00,,,0.00,LWC V2.11 B50,2013-04-05 23:28:00,
2013-04-05 18:33:00,70.9,50.2,30.07,East,101,0.0,0.0,48,0.00,,,0.00,LWC V2.11 B50,2013-04-05 23:33:00,
2013-04-05 18:38:00,70.9,50.2,30.07,South,188,0.0,1.0,48,0.00,,,0.00,LWC V2.11 B50,2013-04-05 23:38:00,
2013-04-05 18:43:00,70.9,50.8,30.06,South,188,0.0,1.0,49,0.00,,,0.00,LWC V2.11 B50,2013-04-05 23:43:00,
2013-04-05 18:48:00,70.6,49.9,30.06,SE,125,0.0,1.0,48,0.00,,,0.00,LWC V2.11 B50,2013-04-05 23:48:00,
2013-04-05 18:53:00,70.3,49.7,30.06,ESE,118,0.0,2.0,48,0.00,,,0.00,LWC V2.11 B50,2013-04-05 23:53:00,
2013-04-05 18:58:00,70.0,50.5,30.06,South,181,0.0,1.0,50,0.00,,,0.00,LWC V2.11 B50,2013-04-05 23:58:00,
2013-04-05 19:03:00,69.8,49.8,30.06,SE,125,0.0,1.0,49,0.00,,,0.00,LWC V2.11 B50,2013-04-06 00:03:00,
2013-04-05 19:08:00,69.7,49.7,30.07,SE,125,0.0,1.0,49,0.00,,,0.00,LWC V2.11 B50,2013-04-06 00:08:00,
2013-04-05 19:13:00,69.5,49.5,30.07,SE,127,0.0,2.0,49,0.00,,,0.00,LWC V2.11 B50,2013-04-06 00:13:00,
2013-04-05 19:18:00,69.3,49.8,30.07,SE,127,0.0,0.0,50,0.00,,,0.00,LWC V2.11 B50,2013-04-06 00:18:00,
2013-04-05 19:23:00,69.2,50.3,30.06,SE,127,0.0,0.0,51,0.00,,,0.00,LWC V2.11 B50,2013-04-06 00:23:00,
2013-04-05 19:28:00,69.0,50.1,30.07,SE,127,0.0,0.0,51,0.00,,,0.00,LWC V2.11 B50,2013-04-06 00:28:00,
2013-04-05 19:33:00,68.7,50.4,30.06,SE,127,0.0,0.0,52,0.00,,,0.00,LWC V2.11 B50,2013-04-06 00:33:00,
2013-04-05 19:38:00,68.5,50.2,30.06,SE,127,0.0,0.0,52,0.00,,,0.00,LWC V2.11 B50,2013-04-06 00:38:00,
2013-04-05 19:43:00,68.2,50.4,30.06,SE,127,0.0,0.0,53,0.00,,,0.00,LWC V2.11 B50,2013-04-06 00:43:00,
2013-04-05 19:48:00,68.0,50.2,30.06,SE,127,0.0,0.0,53,0.00,,,0.00,LWC V2.11 B50,2013-04-06 00:48:00,
2013-04-05 19:53:00,67.6,50.4,30.07,SE,127,0.0,0.0,54,0.00,,,0.00,LWC V2.11 B50,2013-04-06 00:53:00,
2013-04-05 19:59:00,67.2,50.5,30.07,SE,127,0.0,0.0,55,0.00,,,0.00,LWC V2.11 B50,2013-04-06 00:59:00,
2013-04-05 20:04:00,66.9,50.2,30.06,SE,127,0.0,0.0,55,0.00,,,0.00,LWC V2.11 B50,2013-04-06 01:04:00,
2013-04-05 20:09:00,66.5,50.3,30.06,SE,127,0.0,0.0,56,0.00,,,0.00,LWC V2.11 B50,2013-04-06 01:09:00,
2013-04-05 20:14:00,66.3,49.6,30.06,SE,127,0.0,0.0,55,0.00,,,0.00,LWC V2.11 B50,2013-04-06 01:14:00,
2013-04-05 20:19:00,65.4,50.2,30.06,SE,127,0.0,0.0,58,0.00,,,0.00,LWC V2.11 B50,2013-04-06 01:19:00,
2013-04-05 20:24:00,64.6,49.9,30.06,SE,127,0.0,0.0,59,0.00,,,0.00,LWC V2.11 B50,2013-04-06 01:24:00,
2013-04-05 20:29:00,64.2,49.6,30.06,SE,127,0.0,0.0,59,0.00,,,0.00,LWC V2.11 B50,2013-04-06 01:29:00,
2013-04-05 20:35:00,63.5,50.2,30.06,SE,127,0.0,0.0,62,0.00,,,0.00,LWC V2.11 B50,2013-04-06 01:35:00,
2013-04-05 20:40:00,63.0,50.2,30.06,SE,127,0.0,0.0,63,0.00,,,0.00,LWC V2.11 B50,2013-04-06 01:40:00,
2013-04-05 20:45:00,62.4,50.1,30.07,SE,127,0.0,0.0,64,0.00,,,0.00,LWC V2.11 B50,2013-04-06 01:45:00,
2013-04-05 20:50:00,62.1,50.2,30.06,SE,127,0.0,0.0,65,0.00,,,0.00,LWC V2.11 B50,2013-04-06 01:50:00,
2013-04-05 20:55:00,61.7,50.2,30.06,SE,127,0.0,0.0,66,0.00,,,0.00,LWC V2.11 B50,2013-04-06 01:55:00,
2013-04-05 21:00:00,61.5,50.4,30.06,SE,127,0.0,0.0,67,0.00,,,0.00,LWC V2.11 B50,2013-04-06 02:00:00,
2013-04-05 21:05:00,61.2,50.2,30.07,SE,127,0.0,0.0,67,0.00,,,0.00,LWC V2.11 B50,2013-04-06 02:05:00,
2013-04-05 21:10:00,60.9,50.3,30.07,SE,127,0.0,0.0,68,0.00,,,0.00,LWC V2.11 B50,2013-04-06 02:10:00,
2013-04-05 21:15:00,60.8,49.8,30.06,SE,127,0.0,0.0,67,0.00,,,0.00,LWC V2.11 B50,2013-04-06 02:15:00,
2013-04-05 21:21:00,60.7,50.1,30.06,SE,127,0.0,0.0,68,0.00,,,0.00,LWC V2.11 B50,2013-04-06 02:21:00,
2013-04-05 21:27:00,60.6,50.4,30.07,SE,127,0.0,0.0,69,0.00,,,0.00,LWC V2.11 B50,2013-04-06 02:27:00,
2013-04-05 21:32:00,60.5,50.3,30.07,SE,127,0.0,0.0,69,0.00,,,0.00,LWC V2.11 B50,2013-04-06 02:32:00,
2013-04-05 21:37:00,60.6,50.4,30.07,SE,127,0.0,0.0,69,0.00,,,0.00,LWC V2.11 B50,2013-04-06 02:37:00,
2013-04-05 21:42:00,60.6,49.6,30.07,SE,127,0.0,0.0,67,0.00,,,0.00,LWC V2.11 B50,2013-04-06 02:42:00,
2013-04-05 21:47:00,60.8,50.2,30.08,SE,127,0.0,1.0,68,0.00,,,0.00,LWC V2.11 B50,2013-04-06 02:47:00,
2013-04-05 21:52:00,61.0,50.0,30.07,SE,127,0.0,2.0,67,0.00,,,0.00,LWC V2.11 B50,2013-04-06 02:52:00,
2013-04-05 21:57:00,61.2,50.2,30.07,SE,127,0.0,1.0,67,0.00,,,0.00,LWC V2.11 B50,2013-04-06 02:57:00,
2013-04-05 22:02:00,61.4,49.9,30.07,SE,127,0.0,0.0,66,0.00,,,0.00,LWC V2.11 B50,2013-04-06 03:02:00,
2013-04-05 22:07:00,61.4,49.9,30.07,SE,127,1.0,2.0,66,0.00,,,0.00,LWC V2.11 B50,2013-04-06 03:07:00,
2013-04-05 22:12:00,61.3,49.8,30.07,SE,127,0.0,1.0,66,0.00,,,0.00,LWC V2.11 B50,2013-04-06 03:12:00,
2013-04-05 22:17:00,61.0,50.0,30.07,SE,127,0.0,0.0,67,0.00,,,0.00,LWC V2.11 B50,2013-04-06 03:17:00,
2013-04-05 22:22:00,60.7,49.7,30.07,SE,127,0.0,1.0,67,0.00,,,0.00,LWC V2.11 B50,2013-04-06 03:22:00,
2013-04-05 22:27:00,60.5,49.9,30.07,SE,127,0.0,0.0,68,0.00,,,0.00,LWC V2.11 B50,2013-04-06 03:27:00,
2013-04-05 22:32:00,60.2,49.6,30.07,SE,127,0.0,0.0,68,0.00,,,0.00,LWC V2.11 B50,2013-04-06 03:32:00,
2013-04-05 22:37:00,59.9,49.3,30.07,SE,127,0.0,0.0,68,0.00,,,0.00,LWC V2.11 B50,2013-04-06 03:37:00,
2013-04-05 22:42:00,59.5,49.7,30.07,SE,127,0.0,0.0,70,0.00,,,0.00,LWC V2.11 B50,2013-04-06 03:42:00,
2013-04-05 22:47:00,59.1,49.3,30.08,SE,127,0.0,0.0,70,0.00,,,0.00,LWC V2.11 B50,2013-04-06 03:47:00,
2013-04-05 22:52:00,58.9,49.9,30.08,ESE,113,0.0,5.0,72,0.00,,,0.00,LWC V2.11 B50,2013-04-06 03:52:00,
2013-04-05 22:58:00,58.8,49.4,30.08,ESE,123,0.0,2.0,71,0.00,,,0.00,LWC V2.11 B50,2013-04-06 03:58:00,
2013-04-05 23:00:00,58.9,49.5,30.08,ESE,114,1.0,2.0,71,0.00,,,0.00,LWC V2.11 B50,2013-04-06 04:00:00,
2013-04-05 23:01:00,58.9,49.5,30.08,ESE,114,0.0,2.0,71,0.00,,,0.00,LWC V2.11 B50,2013-04-06 04:01:00,
2013-04-05 23:02:00,59.0,50.0,30.08,ESE,107,1.0,2.0,72,0.00,,,0.00,LWC V2.11 B50,2013-04-06 04:02:00,
2013-04-05 23:07:00,59.3,50.3,30.08,SSE,161,1.0,4.0,72,0.00,,,0.00,LWC V2.11 B50,2013-04-06 04:07:00,
2013-04-05 23:12:00,59.6,50.2,30.08,SE,133,0.0,5.0,71,0.00,,,0.00,LWC V2.11 B50,2013-04-06 04:12:00,
2013-04-05 23:17:00,59.7,50.7,30.09,SE,144,2.0,2.0,72,0.00,,,0.00,LWC V2.11 B50,2013-04-06 04:17:00,
2013-04-05 23:22:00,59.7,50.7,30.09,SSW,200,0.0,2.0,72,0.00,,,0.00,LWC V2.11 B50,2013-04-06 04:22:00,
2013-04-05 23:27:00,59.5,50.8,30.09,ESE,123,0.0,1.0,73,0.00,,,0.00,LWC V2.11 B50,2013-04-06 04:27:00,
2013-04-05 23:32:00,59.3,50.6,30.09,South,180,0.0,1.0,73,0.00,,,0.00,LWC V2.11 B50,2013-04-06 04:32:00,
2013-04-05 23:37:00,59.0,50.7,30.09,South,180,0.0,0.0,74,0.00,,,0.00,LWC V2.11 B50,2013-04-06 04:37:00,
2013-04-05 23:42:00,58.7,50.8,30.09,South,180,0.0,1.0,75,0.00,,,0.00,LWC V2.11 B50,2013-04-06 04:42:00,
2013-04-05 23:47:00,58.4,50.5,30.08,South,180,0.0,0.0,75,0.00,,,0.00,LWC V2.11 B50,2013-04-06 04:47:00,
2013-04-05 23:52:00,58.1,50.6,30.08,South,180,0.0,1.0,76,0.00,,,0.00,LWC V2.11 B50,2013-04-06 04:52:00,
2013-04-05 23:57:00,57.8,50.6,30.08,South,180,0.0,0.0,77,0.00,,,0.00,LWC V2.11 B50,2013-04-06 04:57:00,